GW5129 Weather Reports


Display with metric or nautical units.
time (UTC)temp
F
wind
direction
speed
MPH
gust
MPH
rain 1hr
in
rain 24hr
in
rain mn
in
humidity
%
barometer
mb
20260506153703 51 319 1.0 2.0 0.00 0.58 0.58 97 1012.4
20260506153200 52 6 3.0 4.0 0.00 0.58 0.58 97 1012.2
20260506152657 52 338 1.0 3.0 0.00 0.58 0.58 97 1012.4
20260506152155 51 341 0.0 0.0 0.00 0.58 0.58 97 1012.0
20260506151654 51 309 2.0 3.0 0.00 0.58 0.58 97 1011.8
20260506151150 51 311 1.0 2.0 0.00 0.58 0.58 97 1011.8
20260506150646 51 357 4.0 6.0 0.00 0.58 0.58 97 1011.7
20260506150144 51 325 2.0 2.0 0.00 0.58 0.58 97 1011.7
20260506145640 51 36 3.0 4.0 0.00 0.58 0.58 97 1011.7
20260506145137 50 5 2.0 6.0 0.00 0.58 0.58 97 1011.8
20260506144635 51 336 0.0 2.0 0.00 0.58 0.58 97 1011.8
20260506144131 51 357 4.0 4.0 0.00 0.58 0.58 97 1011.7
20260506143629 51 355 2.0 3.0 0.00 0.58 0.58 97 1011.5
20260506143127 51 8 2.0 4.0 0.00 0.58 0.58 97 1011.3
20260506142625 50 358 1.0 3.0 0.00 0.58 0.58 97 1011.3
20260506142123 50 16 0.0 4.0 0.00 0.58 0.58 97 1011.3
20260506141620 50 348 1.0 4.0 0.00 0.58 0.58 97 1011.1
20260506141118 50 37 6.0 8.0 0.00 0.58 0.58 97 1011.0
20260506140615 50 355 1.0 3.0 0.05 0.58 0.58 97 1011.1
20260506140113 50 14 2.0 4.0 0.05 0.58 0.58 97 1011.1
20260506135609 50 335 6.0 8.0 0.07 0.57 0.57 97 1011.1
20260506135105 50 327 1.0 4.0 0.07 0.57 0.57 97 1010.9
20260506134602 50 338 2.0 2.0 0.00 0.56 0.56 97 1010.8
20260506134058 50 319 1.0 4.0 0.05 0.56 0.56 97 1010.8
20260506133555 50 328 2.0 4.0 0.05 0.56 0.56 97 1010.8
20260506133052 51 340 3.0 4.0 0.00 0.55 0.55 97 1010.7
20260506132550 51 314 4.0 4.0 0.00 0.55 0.55 97 1010.2
20260506132047 51 329 2.0 6.0 0.00 0.55 0.55 97 1009.9
20260506131544 51 316 1.0 6.0 0.00 0.55 0.55 97 1010.2
20260506131040 51 318 2.0 8.0 0.07 0.55 0.55 97 1010.2
20260506130537 52 324 2.0 2.0 0.07 0.55 0.55 97 1010.2
20260506130035 52 314 1.0 2.0 0.00 0.54 0.54 97 1010.1
20260506125533 52 346 3.0 4.0 0.00 0.54 0.54 97 1009.6
20260506125030 52 307 0.0 2.0 0.00 0.54 0.54 97 1009.5
20260506124528 52 327 0.0 1.0 0.00 0.54 0.54 97 1009.4
20260506124026 52 337 1.0 2.0 0.00 0.54 0.54 97 1009.5
20260506123523 53 304 0.0 3.0 0.00 0.54 0.54 97 1009.3
20260506123021 53 298 0.0 2.0 0.00 0.54 0.54 97 1009.3
20260506122517 53 293 1.0 3.0 0.05 0.54 0.54 97 1009.1
20260506122016 53 4 1.0 4.0 0.05 0.54 0.54 97 1009.0
20260506121513 54 322 2.0 3.0 0.00 0.53 0.53 97 1009.0
20260506121009 55 11 2.0 4.0 0.00 0.53 0.53 97 1009.2
20260506120507 56 302 1.0 3.0 0.00 0.53 0.53 97 1008.9
20260506120004 58 313 3.0 7.0 0.07 0.53 0.53 97 1009.0
20260506115502 58 227 1.0 4.0 0.07 0.53 0.53 97 1008.7
20260506115000 58 247 0.0 3.0 0.00 0.52 0.52 97 1008.8
20260506114457 58 118 1.0 2.0 0.05 0.52 0.52 97 1008.8
20260506113956 58 170 0.0 1.0 0.07 0.51 0.51 97 1008.7
20260506113453 58 221 0.0 3.0 0.12 0.50 0.50 97 1008.7
20260506112949 58 255 2.0 3.0 0.05 0.49 0.49 97 1008.7
20260506112447 58 138 0.0 0.0 0.00 0.48 0.48 97 1008.4
20260506111944 58 103 0.0 0.0 0.00 0.48 0.48 97 1008.4
20260506111442 58 92 0.0 1.0 0.00 0.48 0.48 97 1008.3
20260506110939 58 230 1.0 2.0 0.00 0.48 0.48 97 1008.4
20260506110437 58 122 2.0 4.0 0.00 0.48 0.48 97 1008.2
20260506105933 58 145 2.0 6.0 0.00 0.48 0.48 97 1008.1
20260506105429 58 187 2.0 2.0 0.00 0.48 0.48 97 1007.9
20260506104927 58 129 2.0 2.0 0.00 0.48 0.48 97 1007.9
20260506104425 58 245 2.0 6.0 0.00 0.48 0.48 97 1008.0
20260506103923 58 164 2.0 4.0 0.00 0.48 0.48 97 1007.6
20260506103420 58 110 3.0 3.0 0.07 0.48 0.48 97 1007.9
20260506102917 58 232 2.0 3.0 0.07 0.48 0.48 97 1008.1
20260506102415 58 137 4.0 6.0 0.00 0.47 0.47 97 1008.1
20260506101912 58 107 4.0 6.0 0.05 0.47 0.47 97 1008.2
20260506101408 58 105 1.0 4.0 0.07 0.46 0.46 97 1008.2
20260506100905 58 114 2.0 2.0 0.12 0.46 0.46 97 1008.2
20260506100404 58 201 2.0 3.0 0.07 0.44 0.44 97 1008.4
20260506095902 58 96 2.0 3.0 0.07 0.44 0.44 97 1008.2
20260506095400 58 96 1.0 2.0 0.05 0.43 0.43 97 1008.3
20260506094856 58 187 2.0 4.0 0.12 0.43 0.43 97 1008.5
20260506094355 58 124 3.0 4.0 0.07 0.42 0.42 97 1008.1
20260506093852 58 192 3.0 6.0 0.05 0.41 0.41 97 1008.2
20260506093349 58 196 2.0 10.0 0.07 0.40 0.40 97 1008.2
20260506092847 58 112 2.0 6.0 0.07 0.40 0.40 97 1008.1
20260506092345 58 173 3.0 3.0 0.05 0.39 0.39 97 1008.1
20260506091841 58 154 1.0 3.0 0.07 0.38 0.38 97 1008.3
20260506091339 58 150 1.0 3.0 0.07 0.38 0.38 97 1008.1
20260506090836 58 130 1.0 4.0 0.07 0.37 0.37 97 1008.3
20260506090334 58 151 2.0 3.0 0.07 0.37 0.37 97 1008.2
20260506085830 58 211 1.0 1.0 0.05 0.36 0.36 97 1008.4
20260506085326 58 219 2.0 4.0 0.05 0.36 0.36 97 1008.3
20260506084823 58 162 1.0 3.0 0.07 0.35 0.35 97 1008.4
20260506084320 58 233 0.0 3.0 0.07 0.35 0.35 97 1008.6
20260506083816 58 110 1.0 2.0 0.05 0.34 0.34 97 1008.6
20260506083314 57 252 1.0 3.0 0.12 0.34 0.34 97 1008.7
20260506082812 57 106 3.0 3.0 0.19 0.33 0.33 97 1008.5
20260506082307 57 112 2.0 2.0 0.12 0.31 0.31 97 1008.5
20260506081804 57 100 2.0 3.0 0.12 0.30 0.30 96 1008.7
20260506081302 57 103 1.0 2.0 0.07 0.29 0.29 96 1008.7
20260506080800 57 118 0.0 0.0 0.05 0.28 0.28 96 1008.6
20260506080256 57 116 1.0 2.0 0.07 0.27 0.27 96 1008.2
20260506073240 57 107 2.0 2.0 0.12 0.22 0.22 96 1008.9
20260506072737 57 105 0.0 0.0 0.17 0.21 0.21 96 1009.0
20260506072234 57 105 0.0 2.0 0.12 0.19 0.19 96 1008.8
20260506071732 57 3 0.0 0.0 0.07 0.18 0.18 96 1008.7
20260506071230 57 57 0.0 0.0 0.00 0.17 0.17 95 1008.6
20260506070726 57 105 0.0 0.0 0.00 0.17 0.17 95 1008.5
20260506070223 57 111 0.0 0.0 0.00 0.17 0.17 95 1008.5
20260506062200 58 117 0.0 0.0 0.19 0.16 0.16 94 1009.0
20260506061656 58 116 0.0 0.0 0.19 0.14 0.14 94 1009.3
20260506061153 58 117 0.0 0.0 0.19 0.13 0.13 94 1009.1
20260506060652 58 117 0.0 0.0 0.12 0.11 0.11 93 1009.3
20260506060149 58 117 0.0 0.0 0.12 0.10 0.10 93 1009.6
20260506051121 58 42 0.0 0.0 0.00 0.04 0.04 89 1010.3
20260506050619 59 42 0.0 0.0 0.00 0.04 0.04 88 1010.4
20260506050116 59 42 0.0 0.0 0.05 0.04 0.04 87 1010.3
20260506045109 59 53 1.0 1.0 0.07 0.03 0.03 85 1010.1
20260506044607 59 53 0.0 0.0 0.07 0.03 0.03 84 1010.1
20260506044103 59 53 0.0 0.0 0.00 0.02 0.02 83 1010.0
20260506043601 60 53 1.0 1.0 0.00 0.02 0.02 82 1010.0
20260506043059 60 53 0.0 2.0 0.00 0.02 0.02 80 1010.1
20260506042558 61 53 0.0 1.0 0.05 0.02 0.02 78 1010.4
20260506042055 62 191 1.0 3.0 0.05 0.02 0.02 76 1010.4
20260506041554 62 111 2.0 6.0 0.07 0.01 0.01 74 1010.5
20260506041050 62 187 2.0 4.0 0.07 0.01 0.01 72 1010.6
20260506040548 63 126 2.0 4.0 0.00 0.00 0.00 71 1010.7
20260506040044 64 184 4.0 6.0 0.07 0.03 0.03 69 1010.6
20260506035541 64 223 2.0 3.0 0.00 0.02 0.02 66 1010.8
20260506035038 65 216 3.0 6.0 0.00 0.02 0.02 64 1010.8
20260506034535 65 105 2.0 4.0 0.00 0.02 0.02 63 1010.6
20260506034032 66 316 2.0 3.0 0.00 0.02 0.02 61 1010.6
20260506033529 67 185 3.0 10.0 0.00 0.02 0.02 59 1010.7
20260506033026 68 160 5.0 10.0 0.00 0.02 0.02 55 1010.4
20260506032524 69 131 1.0 7.0 0.00 0.02 0.02 53 1010.3
20260506032020 69 118 2.0 3.0 0.00 0.02 0.02 54 1010.3
20260506031518 68 169 6.0 17.0 0.00 0.02 0.02 55 1010.0
20260506031015 67 121 1.0 1.0 0.00 0.02 0.02 59 1010.2
20260506030513 67 120 1.0 1.0 0.00 0.02 0.02 59 1009.9
20260506030010 67 102 1.0 1.0 0.00 0.02 0.02 59 1009.9
20260506025507 67 104 1.0 2.0 0.00 0.02 0.02 59 1009.9
20260506025003 67 167 0.0 0.0 0.00 0.02 0.02 59 1009.8
20260506024459 67 167 0.0 0.0 0.00 0.02 0.02 59 1009.8
20260506023955 67 146 0.0 0.0 0.00 0.02 0.02 59 1009.8
20260506023452 68 146 0.0 0.0 0.00 0.02 0.02 58 1010.1
20260506022949 68 146 0.0 0.0 0.00 0.02 0.02 58 1009.7
20260506022447 68 146 1.0 1.0 0.00 0.02 0.02 57 1009.8
20260506021945 68 111 1.0 1.0 0.00 0.02 0.02 58 1010.0
20260506021442 68 127 0.0 3.0 0.00 0.02 0.02 58 1009.9
20260506020938 67 162 1.0 2.0 0.00 0.02 0.02 59 1009.8
20260506020436 66 107 0.0 1.0 0.00 0.02 0.02 61 1009.8
20260506015933 66 105 0.0 0.0 0.00 0.02 0.02 62 1009.7
20260506015431 67 105 0.0 0.0 0.00 0.02 0.02 62 1009.9
20260506014928 67 105 0.0 0.0 0.00 0.02 0.02 62 1009.8
20260506014425 66 124 0.0 1.0 0.00 0.02 0.02 63 1009.8
20260506013921 67 128 0.0 0.0 0.00 0.02 0.02 62 1009.9
20260506013419 67 132 0.0 0.0 0.00 0.02 0.02 61 1009.9
20260506012915 67 132 0.0 0.0 0.00 0.02 0.02 60 1009.7
20260506012412 67 132 0.0 0.0 0.00 0.02 0.02 59 1009.7
20260506011909 67 132 0.0 0.0 0.00 0.02 0.02 59 1009.6
20260506011406 67 132 0.0 0.0 0.00 0.02 0.02 60 1009.4
20260506010903 67 134 0.0 0.0 0.00 0.02 0.02 60 1009.4
20260506010401 67 134 0.0 0.0 0.00 0.02 0.02 60 1009.4
20260506005858 68 134 0.0 0.0 0.00 0.02 0.02 58 1009.3
20260506005355 68 134 0.0 0.0 0.00 0.02 0.02 56 1009.3
20260506004850 69 134 0.0 1.0 0.00 0.02 0.02 55 1009.6
20260506004349 69 143 0.0 1.0 0.00 0.02 0.02 53 1009.8
20260506003844 70 181 0.0 1.0 0.00 0.02 0.02 53 1009.5
20260506003341 70 186 0.0 0.0 0.00 0.02 0.02 52 1009.7
20260506002837 70 203 2.0 2.0 0.00 0.02 0.02 52 1009.7
20260506002334 70 246 0.0 1.0 0.00 0.02 0.02 52 1009.6
20260506001829 71 188 1.0 1.0 0.00 0.02 0.02 51 1009.8
20260506001327 71 230 1.0 2.0 0.00 0.02 0.02 51 1009.8
20260506000824 71 153 2.0 3.0 0.00 0.02 0.02 51 1009.7
20260506000323 71 173 0.0 1.0 0.00 0.02 0.02 51 1009.8
20260505235818 71 226 1.0 3.0 0.00 0.02 0.02 51 1009.8
20260505235315 71 188 2.0 3.0 0.00 0.02 0.02 50 1009.6
20260505234812 71 193 1.0 4.0 0.00 0.02 0.02 50 1009.9
20260505234310 71 291 2.0 3.0 0.00 0.02 0.02 50 1009.8
20260505233807 71 236 1.0 4.0 0.00 0.02 0.02 50 1009.6
20260505233305 72 268 1.0 2.0 0.00 0.02 0.02 50 1009.7
20260505232801 71 127 2.0 4.0 0.00 0.02 0.02 50 1009.6
20260505232259 72 177 2.0 3.0 0.00 0.02 0.02 49 1009.8
20260505231755 72 238 2.0 6.0 0.00 0.02 0.02 49 1009.7
20260505231254 72 201 3.0 7.0 0.00 0.02 0.02 48 1009.7
20260505230752 72 249 1.0 6.0 0.00 0.02 0.02 48 1009.8
20260505230248 73 173 5.0 17.0 0.00 0.02 0.02 47 1009.7
20260505225745 72 132 2.0 8.0 0.00 0.02 0.02 48 1009.6
20260505225242 73 91 3.0 4.0 0.00 0.02 0.02 47 1009.7
20260505224737 73 122 6.0 10.0 0.00 0.02 0.02 47 1009.8
20260505224235 73 209 3.0 14.0 0.00 0.02 0.02 46 1009.8
20260505223733 73 201 1.0 4.0 0.00 0.02 0.02 48 1009.8
20260505223229 73 114 4.0 10.0 0.00 0.02 0.02 48 1009.8
20260505222725 73 62 5.0 9.0 0.00 0.02 0.02 48 1009.9
20260505222221 73 11 0.0 4.0 0.00 0.02 0.02 49 1009.8
20260505221718 73 260 2.0 7.0 0.00 0.02 0.02 47 1009.8
20260505221215 73 233 2.0 4.0 0.00 0.02 0.02 48 1009.9
20260505220712 73 139 2.0 7.0 0.00 0.02 0.02 48 1010.0
20260505220210 73 233 4.0 7.0 0.00 0.02 0.02 48 1009.9
20260505215707 73 177 1.0 4.0 0.00 0.02 0.02 49 1009.8
20260505215205 73 101 3.0 4.0 0.00 0.02 0.02 48 1009.8
20260505214702 73 146 7.0 10.0 0.00 0.02 0.02 48 1010.1
20260505214200 73 169 6.0 10.0 0.00 0.02 0.02 49 1010.1
20260505213657 73 230 4.0 6.0 0.00 0.02 0.02 49 1009.9
20260505213154 73 229 4.0 7.0 0.00 0.02 0.02 50 1010.0
20260505212650 73 181 2.0 6.0 0.00 0.02 0.02 50 1010.1
20260505212147 73 286 1.0 10.0 0.00 0.02 0.02 52 1010.1
20260505211644 73 230 5.0 8.0 0.00 0.02 0.02 51 1010.0
20260505211142 73 107 4.0 6.0 0.00 0.02 0.02 52 1010.0
20260505210638 73 226 2.0 4.0 0.00 0.02 0.02 51 1010.2
20260505210135 74 101 2.0 8.0 0.00 0.02 0.02 51 1010.3
20260505205632 74 146 5.0 8.0 0.00 0.02 0.02 50 1010.2
20260505205131 74 243 2.0 7.0 0.00 0.02 0.02 50 1010.3
20260505204627 74 192 4.0 13.0 0.00 0.02 0.02 50 1010.3
20260505204125 74 140 1.0 10.0 0.00 0.02 0.02 51 1010.3
20260505203621 74 125 3.0 8.0 0.00 0.02 0.02 51 1010.3
20260505203119 74 296 3.0 7.0 0.00 0.02 0.02 50 1010.2
20260505202614 74 259 4.0 6.0 0.00 0.02 0.02 50 1010.3
20260505202110 74 82 7.0 9.0 0.00 0.02 0.02 49 1010.4
20260505201607 74 109 5.0 9.0 0.00 0.02 0.02 49 1010.4
20260505201105 74 148 4.0 11.0 0.00 0.02 0.02 50 1010.4
20260505200603 74 174 6.0 15.0 0.00 0.02 0.02 50 1010.4
20260505200059 74 142 7.0 10.0 0.00 0.02 0.02 50 1010.5
20260505195555 74 101 7.0 11.0 0.00 0.02 0.02 50 1010.6
20260505195053 74 217 5.0 11.0 0.00 0.02 0.02 50 1010.7
20260505194550 74 122 2.0 3.0 0.00 0.02 0.02 50 1010.5
20260505194045 74 223 4.0 7.0 0.00 0.02 0.02 50 1010.7
20260505193543 75 144 2.0 8.0 0.00 0.02 0.02 50 1010.5
20260505193040 75 78 3.0 11.0 0.00 0.02 0.02 49 1010.7
20260505192538 75 201 8.0 11.0 0.00 0.02 0.02 49 1010.8
20260505192036 75 217 6.0 11.0 0.00 0.02 0.02 50 1010.7
20260505191534 74 185 4.0 7.0 0.00 0.02 0.02 51 1010.5
20260505191031 74 185 5.0 11.0 0.00 0.02 0.02 50 1010.6
20260505190526 74 163 4.0 8.0 0.00 0.02 0.02 50 1010.7
20260505190022 75 238 6.0 10.0 0.00 0.02 0.02 49 1010.6
20260505185519 75 177 4.0 8.0 0.00 0.02 0.02 50 1010.5
20260505185016 75 192 5.0 9.0 0.00 0.02 0.02 49 1010.3
20260505184513 76 116 4.0 7.0 0.00 0.02 0.02 49 1010.5
20260505184009 75 245 4.0 9.0 0.00 0.02 0.02 49 1010.4
20260505183506 75 71 3.0 8.0 0.00 0.02 0.02 49 1010.4
20260505183003 75 127 6.0 8.0 0.00 0.02 0.02 48 1010.5
20260505182500 76 183 7.0 13.0 0.00 0.02 0.02 47 1010.4
20260505181956 77 194 4.0 9.0 0.00 0.02 0.02 47 1010.4
20260505181453 76 251 3.0 11.0 0.00 0.02 0.02 47 1010.3
20260505180950 77 123 4.0 10.0 0.00 0.02 0.02 47 1010.4
20260505180446 77 215 4.0 9.0 0.00 0.02 0.02 46 1010.5
20260505175943 77 41 6.0 8.0 0.00 0.02 0.02 47 1010.3
20260505175439 77 121 5.0 11.0 0.00 0.02 0.02 46 1010.5
20260505174936 77 21 1.0 4.0 0.00 0.02 0.02 48 1010.5
20260505174433 76 112 1.0 4.0 0.00 0.02 0.02 47 1010.5
20260505173929 75 308 2.0 13.0 0.00 0.02 0.02 47 1010.6
20260505173426 75 116 5.0 11.0 0.00 0.02 0.02 47 1010.5
20260505172923 75 184 9.0 13.0 0.00 0.02 0.02 47 1010.7
20260505172421 76 199 5.0 10.0 0.00 0.02 0.02 47 1010.6
20260505171920 75 179 5.0 8.0 0.00 0.02 0.02 48 1010.5
20260505171418 75 326 4.0 8.0 0.00 0.02 0.02 48 1010.8
20260505170914 74 178 4.0 11.0 0.00 0.02 0.02 49 1010.5
20260505170411 75 163 5.0 16.0 0.00 0.02 0.02 48 1010.7
20260505165906 75 331 2.0 13.0 0.00 0.02 0.02 48 1010.8
20260505165402 74 119 3.0 8.0 0.00 0.02 0.02 48 1010.7
20260505164858 74 158 3.0 11.0 0.00 0.02 0.02 48 1010.8
20260505164355 74 198 3.0 8.0 0.00 0.02 0.02 49 1010.8
20260505163853 74 230 10.0 13.0 0.00 0.02 0.02 49 1010.7
20260505163352 74 281 2.0 10.0 0.00 0.02 0.02 49 1010.7
20260505162850 74 180 4.0 13.0 0.00 0.02 0.02 48 1010.9
20260505162345 74 197 7.0 13.0 0.00 0.02 0.02 49 1010.8
20260505161843 74 232 4.0 13.0 0.00 0.02 0.02 50 1010.8
20260505161340 74 273 4.0 9.0 0.00 0.02 0.02 50 1011.0
20260505160837 73 117 4.0 9.0 0.00 0.02 0.02 50 1010.8
20260505160335 74 115 6.0 11.0 0.00 0.02 0.02 49 1010.9